﻿_id,日時,平均風速(m/s),平均風向,最大瞬間風速(m/s),最大風速時風向,気温(℃),湿度(%),10分間移動積算雨量(mm),1時間移動積算雨量(mm),日雨量(mm),累計雨量(mm),日射(日積算)(MJ/m2),日照(日積算)(min),現地気圧(hPa),海面気圧(hPa)
1,2022-09-26T00:00:00,1.1,北北東,1.6,北北東,18.3,89.4,0,0,0,0,19.22,558,1003.7,1017.4
2,2022-09-26T00:01:00,1,北東,1.4,北東,18.4,89.6,0,0,0,0,0,0,1003.7,1017.4
3,2022-09-26T00:02:00,1,北東,1.4,北東,18.4,89.9,0,0,0,0,0,0,1003.7,1017.4
4,2022-09-26T00:03:00,1,北東,1.5,北北東,18.6,90.1,0,0,0,0,0,0,1003.7,1017.4
5,2022-09-26T00:04:00,1,北東,1.5,北北東,18.6,90.2,0,0,0,0,0,0,1003.7,1017.4
6,2022-09-26T00:05:00,1,北東,1.5,北北東,18.4,89.3,0,0,0,0,0,0,1003.7,1017.4
7,2022-09-26T00:06:00,0.9,北東,1.5,北北東,18.4,88.9,0,0,0,0,0,0,1003.8,1017.5
8,2022-09-26T00:07:00,0.9,北北東,1.5,北北東,18.5,89.7,0,0,0,0,0,0,1003.8,1017.5
9,2022-09-26T00:08:00,0.9,北北東,1.5,北北東,18.3,89.5,0,0,0,0,0,0,1003.8,1017.5
10,2022-09-26T00:09:00,0.9,北北東,1.5,北北東,18.4,89.5,0,0,0,0,0,0,1003.8,1017.5
11,2022-09-26T00:10:00,0.9,北北東,1.5,北北東,18.4,89.8,0,0,0,0,0,0,1003.8,1017.5
12,2022-09-26T00:11:00,0.9,北北東,1.5,北北東,18.3,89.8,0,0,0,0,0,0,1003.8,1017.5
13,2022-09-26T00:12:00,1,北北東,1.5,北北東,18.2,89.4,0,0,0,0,0,0,1003.8,1017.5
14,2022-09-26T00:13:00,0.9,北北東,1.5,北東,18.3,90.1,0,0,0,0,0,0,1003.8,1017.5
15,2022-09-26T00:14:00,0.9,北北東,1.5,北東,18.5,91,0,0,0,0,0,0,1003.9,1017.6
16,2022-09-26T00:15:00,0.9,北北東,1.5,北東,18.3,90.5,0,0,0,0,0,0,1003.9,1017.6
17,2022-09-26T00:16:00,1,北北東,2,北北東,18.4,90.4,0,0,0,0,0,0,1003.9,1017.6
18,2022-09-26T00:17:00,1.1,北北東,2,北北東,18.6,91.1,0,0,0,0,0,0,1003.9,1017.6
19,2022-09-26T00:18:00,1.2,北北東,2.2,北東,18.4,90,0,0,0,0,0,0,1003.9,1017.6
20,2022-09-26T00:19:00,1.3,北北東,2.2,北東,18.3,89.8,0,0,0,0,0,0,1003.9,1017.6
21,2022-09-26T00:20:00,1.3,北北東,2.2,北東,18.4,90.1,0,0,0,0,0,0,1003.9,1017.6
22,2022-09-26T00:21:00,1.3,北北東,2.2,北東,18.4,90.3,0,0,0,0,0,0,1003.9,1017.6
23,2022-09-26T00:22:00,1.3,北北東,2.2,北東,18.4,90.4,0,0,0,0,0,0,1003.8,1017.5
24,2022-09-26T00:23:00,1.3,北北東,2.2,北東,18.3,90.2,0,0,0,0,0,0,1003.8,1017.5
25,2022-09-26T00:24:00,1.3,北北東,2.2,北東,18.7,90.9,0,0,0,0,0,0,1003.7,1017.4
26,2022-09-26T00:25:00,1.3,北北東,2.2,北東,18.5,90.6,0,0,0,0,0,0,1003.7,1017.4
27,2022-09-26T00:26:00,1.3,北北東,2.2,北東,18.6,90.3,0,0,0,0,0,0,1003.8,1017.5
28,2022-09-26T00:27:00,1.2,北東,2.2,北東,18.6,90.1,0,0,0,0,0,0,1003.8,1017.5
29,2022-09-26T00:28:00,1.1,北東,2,北東,18.3,89.2,0,0,0,0,0,0,1003.8,1017.5
30,2022-09-26T00:29:00,1,北東,2,北東,18.3,89,0,0,0,0,0,0,1003.8,1017.5
31,2022-09-26T00:30:00,0.9,北北東,1.8,北東,18.4,89.5,0,0,0,0,0,0,1003.8,1017.5
32,2022-09-26T00:31:00,0.9,北北東,1.8,北東,18.2,89.3,0,0,0,0,0,0,1003.8,1017.5
33,2022-09-26T00:32:00,0.8,北北東,1.8,北東,18.2,89.6,0,0,0,0,0,0,1003.8,1017.5
34,2022-09-26T00:33:00,0.7,北北東,1.6,北北東,18.2,89.7,0,0,0,0,0,0,1003.9,1017.6
35,2022-09-26T00:34:00,0.7,北北東,1.7,北北東,18.1,90.4,0,0,0,0,0,0,1003.9,1017.6
36,2022-09-26T00:35:00,0.8,北北東,1.7,北北東,18,90.1,0,0,0,0,0,0,1003.9,1017.6
37,2022-09-26T00:36:00,0.8,北北東,1.7,北北東,18.2,90.9,0,0,0,0,0,0,1003.9,1017.6
38,2022-09-26T00:37:00,0.8,北,1.7,北北東,18.2,91.3,0,0,0,0,0,0,1003.9,1017.6
39,2022-09-26T00:38:00,0.9,北,1.7,北北東,18.2,91,0,0,0,0,0,0,1003.9,1017.6
40,2022-09-26T00:39:00,0.9,北,1.7,北北東,18.2,91.1,0,0,0,0,0,0,1003.9,1017.6
41,2022-09-26T00:40:00,1,北,1.9,北北東,18.3,91.5,0,0,0,0,0,0,1003.9,1017.6
42,2022-09-26T00:41:00,1.1,北北東,2.2,北北東,18.3,91.6,0,0,0,0,0,0,1003.9,1017.6
43,2022-09-26T00:42:00,1.2,北北東,2.2,北北東,18.4,91.5,0,0,0,0,0,0,1003.9,1017.6
44,2022-09-26T00:43:00,1.3,北北東,2.2,北北東,18.5,91.4,0,0,0,0,0,0,1003.9,1017.6
45,2022-09-26T00:44:00,1.3,北北東,2.2,北北東,18.4,91,0,0,0,0,0,0,1003.9,1017.6
46,2022-09-26T00:45:00,1.3,北北東,2.2,北北東,18.3,90.6,0,0,0,0,0,0,1004,1017.7
47,2022-09-26T00:46:00,1.2,北北東,2.2,北北東,18.3,90,0,0,0,0,0,0,1003.9,1017.6
48,2022-09-26T00:47:00,1.2,北,2.2,北北東,18.4,90.3,0,0,0,0,0,0,1003.9,1017.6
49,2022-09-26T00:48:00,1.1,北,2.2,北北東,18.4,90.4,0,0,0,0,0,0,1003.9,1017.6
50,2022-09-26T00:49:00,1,北,2.2,北北東,18.3,90.2,0,0,0,0,0,0,1004,1017.7
51,2022-09-26T00:50:00,1,北,2.2,北北東,18.3,90,0,0,0,0,0,0,1004,1017.7
52,2022-09-26T00:51:00,0.8,北,2.1,北北東,18.3,90.3,0,0,0,0,0,0,1004,1017.7
53,2022-09-26T00:52:00,0.7,北北西,2,北東,18.3,90.2,0,0,0,0,0,0,1004,1017.7
54,2022-09-26T00:53:00,0.6,北北西,2,北東,18.3,90.1,0,0,0,0,0,0,1004,1017.7
55,2022-09-26T00:54:00,0.6,北北西,2,北東,18.2,90.2,0,0,0,0,0,0,1004,1017.7
56,2022-09-26T00:55:00,0.5,北北西,2,北東,18.1,90.1,0,0,0,0,0,0,1004,1017.7
57,2022-09-26T00:56:00,0.5,北,1.1,北西,18.2,90.6,0,0,0,0,0,0,1004,1017.7
58,2022-09-26T00:57:00,0.4,北,1.1,北西,18.4,91.3,0,0,0,0,0,0,1003.9,1017.6
59,2022-09-26T00:58:00,0.4,北,1.1,北西,18.2,90.9,0,0,0,0,0,0,1003.9,1017.6
60,2022-09-26T00:59:00,0.4,北北東,1.1,北西,18.2,90.6,0,0,0,0,0,0,1003.9,1017.6
61,2022-09-26T01:00:00,0.3,北東,1,北西,18.1,90.9,0,0,0,0,0,0,1003.9,1017.6
62,2022-09-26T01:01:00,0.3,北東,0.9,北,18,90.6,0,0,0,0,0,0,1004,1017.7
63,2022-09-26T01:02:00,0.3,東北東,0.8,東北東,17.9,90.8,0,0,0,0,0,0,1004,1017.7
64,2022-09-26T01:03:00,0.2,静穏,0.8,東北東,18,91.2,0,0,0,0,0,0,1004,1017.7
65,2022-09-26T01:04:00,0.2,静穏,0.8,東北東,18,91.7,0,0,0,0,0,0,1004,1017.7
66,2022-09-26T01:05:00,0.2,静穏,0.8,東北東,18.1,92.2,0,0,0,0,0,0,1004.1,1017.8
67,2022-09-26T01:06:00,0.2,静穏,0.8,東北東,18.1,92.6,0,0,0,0,0,0,1004.1,1017.8
68,2022-09-26T01:07:00,0.2,静穏,0.8,東北東,18,92.1,0,0,0,0,0,0,1004.1,1017.8
69,2022-09-26T01:08:00,0.2,静穏,0.7,北西,17.9,91.9,0,0,0,0,0,0,1004.1,1017.8
70,2022-09-26T01:09:00,0.2,静穏,0.9,西,18,91.9,0,0,0,0,0,0,1004.1,1017.8
71,2022-09-26T01:10:00,0.3,北北西,0.9,西,18.1,92.4,0,0,0,0,0,0,1004.1,1017.8
72,2022-09-26T01:11:00,0.4,北西,0.9,西,18.1,92.9,0,0,0,0,0,0,1004.1,1017.8
73,2022-09-26T01:12:00,0.4,北西,0.9,西,18.1,92.5,0,0,0,0,0,0,1004.1,1017.8
74,2022-09-26T01:13:00,0.5,西北西,1,西,18.1,92.2,0,0,0,0,0,0,1004.1,1017.8
75,2022-09-26T01:14:00,0.6,西北西,1,西,18,92.1,0,0,0,0,0,0,1004,1017.7
76,2022-09-26T01:15:00,0.6,西北西,1,西,18,92.1,0,0,0,0,0,0,1004,1017.7
77,2022-09-26T01:16:00,0.6,西,1,西,18,92,0,0,0,0,0,0,1004,1017.7
78,2022-09-26T01:17:00,0.7,西,1,西,18,92,0,0,0,0,0,0,1004,1017.7
79,2022-09-26T01:18:00,0.7,西,1.1,西南西,18,92.2,0,0,0,0,0,0,1004,1017.7
80,2022-09-26T01:19:00,0.7,西,1.1,西南西,18,92.4,0,0,0,0,0,0,1004,1017.7
81,2022-09-26T01:20:00,0.7,西,1.1,西南西,17.9,92.2,0,0,0,0,0,0,1004,1017.7
82,2022-09-26T01:21:00,0.7,西,1.2,西北西,17.9,92.2,0,0,0,0,0,0,1004,1017.7
83,2022-09-26T01:22:00,0.7,西,1.2,西北西,17.9,92.2,0,0,0,0,0,0,1004,1017.7
84,2022-09-26T01:23:00,0.7,西,1.2,西北西,17.9,92.5,0,0,0,0,0,0,1003.9,1017.6
85,2022-09-26T01:24:00,0.8,西,1.2,西北西,17.9,92.5,0,0,0,0,0,0,1003.9,1017.6
86,2022-09-26T01:25:00,0.8,西,1.2,西北西,17.9,92.6,0,0,0,0,0,0,1003.9,1017.6
87,2022-09-26T01:26:00,0.8,西,1.2,西北西,17.9,92.7,0,0,0,0,0,0,1003.9,1017.6
88,2022-09-26T01:27:00,0.7,西,1.2,西北西,18,92.8,0,0,0,0,0,0,1003.9,1017.6
89,2022-09-26T01:28:00,0.7,西,1.2,西北西,17.9,92.7,0,0,0,0,0,0,1003.9,1017.6
90,2022-09-26T01:29:00,0.6,西,1.2,西北西,17.8,92.6,0,0,0,0,0,0,1003.9,1017.6
91,2022-09-26T01:30:00,0.6,西南西,1.2,西北西,17.8,92.3,0,0,0,0,0,0,1003.8,1017.5
92,2022-09-26T01:31:00,0.5,西南西,1.2,西,17.8,92.7,0,0,0,0,0,0,1003.8,1017.5
93,2022-09-26T01:32:00,0.5,南西,1.1,西,17.8,92.7,0,0,0,0,0,0,1003.8,1017.5
94,2022-09-26T01:33:00,0.4,南西,1,西,17.8,92.9,0,0,0,0,0,0,1003.8,1017.5
95,2022-09-26T01:34:00,0.3,南南西,0.9,西南西,17.9,93.1,0,0,0,0,0,0,1003.8,1017.5
96,2022-09-26T01:35:00,0.3,南南西,0.9,西南西,18.1,93.8,0,0,0,0,0,0,1003.8,1017.5
97,2022-09-26T01:36:00,0.2,静穏,0.9,南西,18.3,94,0,0,0,0,0,0,1003.8,1017.5
98,2022-09-26T01:37:00,0.2,静穏,0.9,南西,18.2,93.4,0,0,0,0,0,0,1003.9,1017.6
99,2022-09-26T01:38:00,0.2,静穏,0.9,南西,17.8,91.6,0,0,0,0,0,0,1003.9,1017.6
100,2022-09-26T01:39:00,0.3,南南西,0.9,南西,17.7,91,0,0,0,0,0,0,1003.9,1017.6
101,2022-09-26T01:40:00,0.3,南南西,0.9,南西,17.6,91.5,0,0,0,0,0,0,1003.9,1017.6
102,2022-09-26T01:41:00,0.2,静穏,0.9,南西,17.6,92,0,0,0,0,0,0,1003.9,1017.6
103,2022-09-26T01:42:00,0.2,静穏,0.9,南西,17.5,92.5,0,0,0,0,0,0,1003.8,1017.6
104,2022-09-26T01:43:00,0.2,静穏,0.9,南西,17.6,93.2,0,0,0,0,0,0,1003.8,1017.5
105,2022-09-26T01:44:00,0.2,静穏,0.9,南西,17.8,94.2,0,0,0,0,0,0,1003.8,1017.5
106,2022-09-26T01:45:00,0.2,静穏,0.9,南西,18,94.7,0,0,0,0,0,0,1003.8,1017.5
107,2022-09-26T01:46:00,0.2,静穏,0.8,西,18.1,94.7,0,0,0,0,0,0,1003.7,1017.4
108,2022-09-26T01:47:00,0.2,静穏,0.8,西,18,94,0,0,0,0,0,0,1003.8,1017.5
109,2022-09-26T01:48:00,0.2,静穏,1,西,17.8,93.1,0,0,0,0,0,0,1003.8,1017.5
110,2022-09-26T01:49:00,0.2,静穏,1,西,17.8,92.7,0,0,0,0,0,0,1003.8,1017.5
111,2022-09-26T01:50:00,0.3,西,1.2,西,17.9,92.8,0,0,0,0,0,0,1003.8,1017.5
112,2022-09-26T01:51:00,0.4,西,1.2,西,17.9,93,0,0,0,0,0,0,1003.8,1017.5
113,2022-09-26T01:52:00,0.5,西,1.4,西,17.9,93,0,0,0,0,0,0,1003.8,1017.5
114,2022-09-26T01:53:00,0.6,西,1.4,西,18,92.8,0,0,0,0,0,0,1003.8,1017.5
115,2022-09-26T01:54:00,0.7,西,1.4,西,17.9,92.9,0,0,0,0,0,0,1003.8,1017.5
116,2022-09-26T01:55:00,0.8,西北西,1.4,西,18,92.7,0,0,0,0,0,0,1003.8,1017.5
117,2022-09-26T01:56:00,0.8,西,1.4,西,17.9,92.5,0,0,0,0,0,0,1003.8,1017.5
118,2022-09-26T01:57:00,0.9,西,1.4,西,17.8,92.3,0,0,0,0,0,0,1003.8,1017.5
119,2022-09-26T01:58:00,0.9,西,1.4,西,17.7,92.1,0,0,0,0,0,0,1003.8,1017.5
120,2022-09-26T01:59:00,0.9,西,1.4,西,17.6,91.8,0,0,0,0,0,0,1003.8,1017.5
121,2022-09-26T02:00:00,0.8,西,1.4,西,17.7,92.7,0,0,0,0,0,0,1003.8,1017.5
122,2022-09-26T02:01:00,0.8,西,1.4,西,17.5,92.5,0,0,0,0,0,0,1003.8,1017.6
123,2022-09-26T02:02:00,0.8,西,1.2,西,17.8,93.5,0,0,0,0,0,0,1003.8,1017.5
124,2022-09-26T02:03:00,0.8,西,1.1,西,17.7,93.9,0,0,0,0,0,0,1003.8,1017.5
125,2022-09-26T02:04:00,0.7,西,1.1,西,17.7,93.8,0,0,0,0,0,0,1003.8,1017.5
126,2022-09-26T02:05:00,0.7,西,1.2,西南西,17.6,93.7,0,0,0,0,0,0,1003.8,1017.5
127,2022-09-26T02:06:00,0.7,西,1.2,西南西,17.6,94,0,0,0,0,0,0,1003.8,1017.5
128,2022-09-26T02:07:00,0.7,西,1.2,西南西,17.6,93.6,0,0,0,0,0,0,1003.8,1017.5
129,2022-09-26T02:08:00,0.7,西,1.2,西南西,17.8,94.4,0,0,0,0,0,0,1003.8,1017.5
130,2022-09-26T02:09:00,0.6,西,1.2,西南西,17.9,94.5,0,0,0,0,0,0,1003.8,1017.5
131,2022-09-26T02:10:00,0.6,西,1.2,西南西,17.9,94.3,0,0,0,0,0,0,1003.8,1017.5
132,2022-09-26T02:11:00,0.5,西,1.2,西南西,17.9,93.9,0,0,0,0,0,0,1003.8,1017.5
133,2022-09-26T02:12:00,0.5,西,1.2,西南西,17.8,93.4,0,0,0,0,0,0,1003.8,1017.5
134,2022-09-26T02:13:00,0.5,西,1.2,西南西,17.7,92.9,0,0,0,0,0,0,1003.8,1017.5
135,2022-09-26T02:14:00,0.5,西,1.4,北西,17.7,93,0,0,0,0,0,0,1003.8,1017.5
136,2022-09-26T02:15:00,0.6,西,1.5,西北西,18,93.7,0,0,0,0,0,0,1003.8,1017.5
137,2022-09-26T02:16:00,0.6,西,2,西,17.8,93.6,0,0,0,0,0,0,1003.8,1017.5
138,2022-09-26T02:17:00,0.7,西,2,西,17.7,92.7,0,0,0,0,0,0,1003.8,1017.5
139,2022-09-26T02:18:00,0.9,西,2,西,17.6,92.4,0,0,0,0,0,0,1003.8,1017.5
140,2022-09-26T02:19:00,1,西,2,西,17.4,92.5,0,0,0,0,0,0,1003.9,1017.7
141,2022-09-26T02:20:00,1.1,西,2,西,17.3,92.7,0,0,0,0,0,0,1003.8,1017.6
142,2022-09-26T02:21:00,1.1,西,2,西,17.4,93.4,0,0,0,0,0,0,1003.8,1017.6
143,2022-09-26T02:22:00,1.1,西,2,西,17.3,94.1,0,0,0,0,0,0,1003.8,1017.6
144,2022-09-26T02:23:00,1.1,西,2,西,17.5,94.5,0,0,0,0,0,0,1003.8,1017.6
145,2022-09-26T02:24:00,1.2,西,2,西,17.6,95.3,0,0,0,0,0,0,1003.8,1017.5
146,2022-09-26T02:25:00,1.2,西,2,西,17.8,95.4,0,0,0,0,0,0,1003.8,1017.5
147,2022-09-26T02:26:00,1.2,西,1.8,西,17.8,95.4,0,0,0,0,0,0,1003.9,1017.6
148,2022-09-26T02:27:00,1.1,西,1.7,西北西,17.6,94.5,0,0,0,0,0,0,1003.9,1017.6
149,2022-09-26T02:28:00,1.2,西,2.2,西,17.5,93.9,0,0,0,0,0,0,1003.9,1017.7
150,2022-09-26T02:29:00,1.2,西,2.2,西,17.4,93.5,0,0,0,0,0,0,1003.9,1017.7
151,2022-09-26T02:30:00,1.1,西,2.2,西,17.2,93.5,0,0,0,0,0,0,1003.9,1017.7
152,2022-09-26T02:31:00,1.2,西,2.2,西,17.3,94,0,0,0,0,0,0,1003.9,1017.7
153,2022-09-26T02:32:00,1.2,西,2.2,西,17.3,94.8,0,0,0,0,0,0,1003.9,1017.7
154,2022-09-26T02:33:00,1.1,西,2.2,西,17.2,95,0,0,0,0,0,0,1003.9,1017.7
155,2022-09-26T02:34:00,1.1,西,2.2,西,17.3,95.3,0,0,0,0,0,0,1003.8,1017.6
156,2022-09-26T02:35:00,1.1,西,2.2,西,17.3,95.5,0,0,0,0,0,0,1003.8,1017.6
157,2022-09-26T02:36:00,1,西,2.2,西,17.6,95.8,0,0,0,0,0,0,1003.9,1017.6
158,2022-09-26T02:37:00,1,西,2.2,西,17.5,95.7,0,0,0,0,0,0,1003.9,1017.7
159,2022-09-26T02:38:00,1,西,2.1,西,17.5,95.7,0,0,0,0,0,0,1003.9,1017.7
160,2022-09-26T02:39:00,1.1,西,2.1,西,17.5,95.6,0,0,0,0,0,0,1003.9,1017.7
161,2022-09-26T02:40:00,1.1,西,2.1,西,17.4,95.3,0,0,0,0,0,0,1003.9,1017.7
162,2022-09-26T02:41:00,1.1,西,2.1,西,17.3,95,0,0,0,0,0,0,1003.9,1017.7
163,2022-09-26T02:42:00,1.2,西,2.1,西,17.3,95.2,0,0,0,0,0,0,1003.9,1017.7
164,2022-09-26T02:43:00,1.3,西,2.1,西,17.2,95,0,0,0,0,0,0,1003.9,1017.7
165,2022-09-26T02:44:00,1.4,西,2.1,西,17.5,95.6,0,0,0,0,0,0,1003.9,1017.7
166,2022-09-26T02:45:00,1.4,西,2.1,西,17.3,95.6,0,0,0,0,0,0,1003.9,1017.7
167,2022-09-26T02:46:00,1.4,西,2.1,西,17.2,95.3,0,0,0,0,0,0,1003.9,1017.7
168,2022-09-26T02:47:00,1.4,西,2.1,西,17.2,95.4,0,0,0,0,0,0,1003.9,1017.7
169,2022-09-26T02:48:00,1.3,西,1.9,西,17.4,95.7,0,0,0,0,0,0,1003.9,1017.7
170,2022-09-26T02:49:00,1.3,西,1.9,西,17.4,95.7,0,0,0,0,0,0,1003.9,1017.7
171,2022-09-26T02:50:00,1.2,西,1.9,西,17.4,95.6,0,0,0,0,0,0,1003.9,1017.7
172,2022-09-26T02:51:00,1.2,西,1.9,西,17.4,95.6,0,0,0,0,0,0,1003.9,1017.7
173,2022-09-26T02:52:00,1.1,西,1.9,西,17.6,95.7,0,0,0,0,0,0,1003.9,1017.6
174,2022-09-26T02:53:00,1,西,1.8,西,17.6,95.7,0,0,0,0,0,0,1003.9,1017.6
175,2022-09-26T02:54:00,1,西,1.5,西,17.7,95.6,0,0,0,0,0,0,1003.9,1017.6
176,2022-09-26T02:55:00,0.9,西,1.5,西,17.6,95.3,0,0,0,0,0,0,1003.9,1017.6
177,2022-09-26T02:56:00,0.8,西,1.5,西,17.6,95.2,0,0,0,0,0,0,1003.9,1017.6
178,2022-09-26T02:57:00,0.7,西,1.5,西,17.6,94.9,0,0,0,0,0,0,1003.9,1017.6
179,2022-09-26T02:58:00,0.7,西,1.3,西,17.5,94.7,0,0,0,0,0,0,1003.9,1017.7
180,2022-09-26T02:59:00,0.6,西北西,1.2,西,17.6,94.4,0,0,0,0,0,0,1003.9,1017.6
181,2022-09-26T03:00:00,0.6,西北西,1.2,西,17.8,95,0,0,0,0,0,0,1003.9,1017.6
182,2022-09-26T03:01:00,0.5,西北西,1.2,西,17.7,94.6,0,0,0,0,0,0,1003.9,1017.6
183,2022-09-26T03:02:00,0.5,西北西,1.2,北西,17.7,94.4,0,0,0,0,0,0,1004,1017.7
184,2022-09-26T03:03:00,0.5,西北西,1.2,北西,17.7,94.3,0,0,0,0,0,0,1004,1017.7
185,2022-09-26T03:04:00,0.5,西北西,1.2,北西,17.6,94.1,0,0,0,0,0,0,1004,1017.8
186,2022-09-26T03:05:00,0.6,西北西,1.2,北西,17.7,94.2,0,0,0,0,0,0,1004,1017.7
187,2022-09-26T03:06:00,0.6,北西,1.2,北西,17.7,94.2,0,0,0,0,0,0,1004,1017.7
188,2022-09-26T03:07:00,0.6,北西,1.2,北西,17.7,94.1,0,0,0,0,0,0,1004,1017.7
189,2022-09-26T03:08:00,0.6,北西,1.2,北西,17.6,94,0,0,0,0,0,0,1003.9,1017.6
190,2022-09-26T03:09:00,0.7,北西,1.2,北西,17.6,93.9,0,0,0,0,0,0,1003.9,1017.6
191,2022-09-26T03:10:00,0.7,北北西,1.2,北西,17.6,94.2,0,0,0,0,0,0,1003.9,1017.6
192,2022-09-26T03:11:00,0.7,北北西,1.2,北,17.6,94.3,0,0,0,0,0,0,1003.9,1017.6
193,2022-09-26T03:12:00,0.7,北北西,1.2,北,17.5,94.3,0,0,0,0,0,0,1003.9,1017.7
194,2022-09-26T03:13:00,0.7,北,1.2,北,17.5,94.3,0,0,0,0,0,0,1003.9,1017.7
195,2022-09-26T03:14:00,0.7,北,1.2,北,17.4,94.2,0,0,0,0,0,0,1003.9,1017.7
196,2022-09-26T03:15:00,0.7,北,1.2,北,17.4,94.5,0,0,0,0,0,0,1003.8,1017.6
197,2022-09-26T03:16:00,0.7,北北東,1.2,北,17.4,94.7,0,0,0,0,0,0,1003.8,1017.6
198,2022-09-26T03:17:00,0.7,北北東,1.2,北,17.4,94.7,0,0,0,0,0,0,1003.8,1017.6
199,2022-09-26T03:18:00,0.7,北北東,1.2,北,17.4,95.1,0,0,0,0,0,0,1003.7,1017.5
200,2022-09-26T03:19:00,0.7,北北東,1.1,北東,17.5,95.3,0,0,0,0,0,0,1003.7,1017.5
201,2022-09-26T03:20:00,0.6,北北東,1.1,北東,17.5,95.3,0,0,0,0,0,0,1003.7,1017.5
202,2022-09-26T03:21:00,0.5,北北東,1,北北東,17.5,95.3,0,0,0,0,0,0,1003.7,1017.5
203,2022-09-26T03:22:00,0.5,北北東,1,北北東,17.4,95.3,0,0,0,0,0,0,1003.7,1017.5
204,2022-09-26T03:23:00,0.4,北東,1,北北東,17.6,95.3,0,0,0,0,0,0,1003.7,1017.4
205,2022-09-26T03:24:00,0.4,北北東,0.9,北東,17.5,95.3,0,0,0,0,0,0,1003.7,1017.5
206,2022-09-26T03:25:00,0.3,北北東,0.9,北東,17.3,94.9,0,0,0,0,0,0,1003.7,1017.5
207,2022-09-26T03:26:00,0.3,北北東,0.8,北東,17.4,95.1,0,0,0,0,0,0,1003.7,1017.5
208,2022-09-26T03:27:00,0.2,静穏,0.6,北東,17.4,95.3,0,0,0,0,0,0,1003.7,1017.5
209,2022-09-26T03:28:00,0.2,静穏,0.5,北,17.4,95.3,0,0,0,0,0,0,1003.7,1017.5
210,2022-09-26T03:29:00,0.1,静穏,0.5,北,17.4,95.4,0,0,0,0,0,0,1003.7,1017.5
211,2022-09-26T03:30:00,0.1,静穏,0.5,北,17.2,95.2,0,0,0,0,0,0,1003.7,1017.5
212,2022-09-26T03:31:00,0.2,静穏,0.6,西北西,17.2,95.2,0,0,0,0,0,0,1003.7,1017.5
213,2022-09-26T03:32:00,0.2,静穏,0.9,西,17.3,95.5,0,0,0,0,0,0,1003.6,1017.4
214,2022-09-26T03:33:00,0.2,静穏,0.9,西,17.4,95.6,0,0,0,0,0,0,1003.6,1017.4
215,2022-09-26T03:34:00,0.2,静穏,0.9,西,17.4,95.6,0,0,0,0,0,0,1003.6,1017.4
216,2022-09-26T03:35:00,0.2,静穏,0.9,西,17.3,95.4,0,0,0,0,0,0,1003.6,1017.4
217,2022-09-26T03:36:00,0.3,西北西,1,西,17.3,95.5,0,0,0,0,0,0,1003.6,1017.4
218,2022-09-26T03:37:00,0.3,西北西,1,西,17.3,95.6,0,0,0,0,0,0,1003.6,1017.4
219,2022-09-26T03:38:00,0.4,西北西,1,西,17.3,95.6,0,0,0,0,0,0,1003.6,1017.4
220,2022-09-26T03:39:00,0.4,西,1,西,17.3,95.5,0,0,0,0,0,0,1003.6,1017.4
221,2022-09-26T03:40:00,0.5,西,1,西,17.3,95.6,0,0,0,0,0,0,1003.6,1017.4
222,2022-09-26T03:41:00,0.5,西,1,西,17.3,95.6,0,0,0,0,0,0,1003.6,1017.4
223,2022-09-26T03:42:00,0.4,西北西,1,西,17.4,95.6,0,0,0,0,0,0,1003.7,1017.5
224,2022-09-26T03:43:00,0.4,西北西,1,西,17.4,95.6,0,0,0,0,0,0,1003.7,1017.5
225,2022-09-26T03:44:00,0.4,西北西,1,西,17.4,95.7,0,0,0,0,0,0,1003.6,1017.4
226,2022-09-26T03:45:00,0.4,西北西,1,西,17.3,95.5,0,0,0,0,0,0,1003.6,1017.4
227,2022-09-26T03:46:00,0.4,西北西,0.8,西,17.1,95.2,0,0,0,0,0,0,1003.6,1017.4
228,2022-09-26T03:47:00,0.4,西北西,0.8,西,17.2,95.2,0,0,0,0,0,0,1003.6,1017.4
229,2022-09-26T03:48:00,0.3,西北西,0.8,西,17.1,95.4,0,0,0,0,0,0,1003.6,1017.4
230,2022-09-26T03:49:00,0.3,北西,0.8,西,17.1,95.3,0,0,0,0,0,0,1003.6,1017.4
231,2022-09-26T03:50:00,0.3,北西,0.8,西,17.1,95.4,0,0,0,0,0,0,1003.7,1017.5
232,2022-09-26T03:51:00,0.3,北西,0.8,西,17,95.5,0,0,0,0,0,0,1003.7,1017.5
233,2022-09-26T03:52:00,0.3,北西,0.8,西,17.2,95.6,0,0,0,0,0,0,1003.7,1017.5
234,2022-09-26T03:53:00,0.4,北西,0.8,西,17.2,95.8,0,0,0,0,0,0,1003.7,1017.5
235,2022-09-26T03:54:00,0.4,北西,0.8,西,17.2,96,0,0,0,0,0,0,1003.7,1017.5
236,2022-09-26T03:55:00,0.3,北西,0.9,西北西,17.1,95.7,0,0,0,0,0,0,1003.7,1017.5
237,2022-09-26T03:56:00,0.4,北西,1,西北西,17,95.6,0,0,0,0,0,0,1003.7,1017.5
238,2022-09-26T03:57:00,0.4,北西,1,西北西,17.1,95.7,0,0,0,0,0,0,1003.7,1017.5
239,2022-09-26T03:58:00,0.4,北西,1,西北西,17.1,95.8,0,0,0,0,0,0,1003.7,1017.5
240,2022-09-26T03:59:00,0.4,北西,1,西北西,17.1,95.9,0,0,0,0,0,0,1003.7,1017.5
241,2022-09-26T04:00:00,0.5,北西,1.2,北西,17.2,95.9,0,0,0,0,0,0,1003.7,1017.5
242,2022-09-26T04:01:00,0.5,北西,1.2,北西,17.2,95.9,0,0,0,0,0,0,1003.7,1017.5
243,2022-09-26T04:02:00,0.5,北西,1.2,北西,17.3,95.9,0,0,0,0,0,0,1003.7,1017.5
244,2022-09-26T04:03:00,0.6,北西,1.2,北西,17.3,95.9,0,0,0,0,0,0,1003.7,1017.5
245,2022-09-26T04:04:00,0.6,北西,1.2,北西,17.2,95.9,0,0,0,0,0,0,1003.7,1017.5
246,2022-09-26T04:05:00,0.6,北北西,1.2,北西,17.1,95.5,0,0,0,0,0,0,1003.7,1017.5
247,2022-09-26T04:06:00,0.6,北北西,1.2,北西,17.1,95.4,0,0,0,0,0,0,1003.7,1017.5
248,2022-09-26T04:07:00,0.6,北北西,1.2,北西,17,95.2,0,0,0,0,0,0,1003.7,1017.5
249,2022-09-26T04:08:00,0.6,北北西,1.2,北西,17,95.3,0,0,0,0,0,0,1003.7,1017.5
250,2022-09-26T04:09:00,0.6,北北西,1.2,北西,17.1,95.6,0,0,0,0,0,0,1003.7,1017.5
251,2022-09-26T04:10:00,0.7,北北西,1.2,北北東,17.1,95.8,0,0,0,0,0,0,1003.8,1017.6
252,2022-09-26T04:11:00,0.6,北,1.2,北北東,17.2,95.8,0,0,0,0,0,0,1003.8,1017.6
253,2022-09-26T04:12:00,0.6,北,1.2,北北東,17.1,95.8,0,0,0,0,0,0,1003.8,1017.6
254,2022-09-26T04:13:00,0.6,北,1.2,北北東,17.1,95.7,0,0,0,0,0,0,1003.8,1017.6
255,2022-09-26T04:14:00,0.6,北,1.2,北北東,17,95.4,0,0,0,0,0,0,1003.8,1017.6
256,2022-09-26T04:15:00,0.6,北,1.2,北北東,16.9,95.5,0,0,0,0,0,0,1003.8,1017.6
257,2022-09-26T04:16:00,0.6,北北西,1.2,北北東,16.8,95.3,0,0,0,0,0,0,1003.8,1017.6
258,2022-09-26T04:17:00,0.6,北北西,1.2,北北東,16.9,95.5,0,0,0,0,0,0,1003.8,1017.6
259,2022-09-26T04:18:00,0.5,北北西,1.2,北北東,16.9,95.6,0,0,0,0,0,0,1003.8,1017.6
260,2022-09-26T04:19:00,0.5,北西,1.2,北北東,16.8,95.6,0,0,0,0,0,0,1003.8,1017.6
261,2022-09-26T04:20:00,0.4,北西,1.1,北,16.8,95.8,0,0,0,0,0,0,1003.8,1017.6
262,2022-09-26T04:21:00,0.4,北西,1.1,北,16.7,95.8,0,0,0,0,0,0,1003.8,1017.6
263,2022-09-26T04:22:00,0.4,北西,1,西北西,16.8,96,0,0,0,0,0,0,1003.8,1017.6
264,2022-09-26T04:23:00,0.3,北西,1,西北西,16.7,96.1,0,0,0,0,0,0,1003.8,1017.6
265,2022-09-26T04:24:00,0.3,北北西,0.8,北北東,16.8,96.2,0,0,0,0,0,0,1003.8,1017.6
266,2022-09-26T04:25:00,0.3,北北西,0.8,北北東,17,96.4,0,0,0,0,0,0,1003.8,1017.6
267,2022-09-26T04:26:00,0.3,北北西,0.9,北,16.9,96.5,0,0,0,0,0,0,1003.8,1017.6
268,2022-09-26T04:27:00,0.3,北,0.9,北,16.9,96.5,0,0,0,0,0,0,1003.9,1017.7
269,2022-09-26T04:28:00,0.3,北,1,北西,17,96.5,0,0,0,0,0,0,1003.9,1017.7
270,2022-09-26T04:29:00,0.4,北,1,北西,17.1,96.5,0,0,0,0,0,0,1003.9,1017.7
271,2022-09-26T04:30:00,0.4,北北西,1,北西,16.9,96.4,0,0,0,0,0,0,1003.9,1017.7
272,2022-09-26T04:31:00,0.4,北北西,1,北西,16.9,96.1,0,0,0,0,0,0,1003.9,1017.7
273,2022-09-26T04:32:00,0.4,北北西,1,北西,16.9,96.1,0,0,0,0,0,0,1003.9,1017.7
274,2022-09-26T04:33:00,0.4,北北西,1,北西,16.9,96.1,0,0,0,0,0,0,1003.8,1017.6
275,2022-09-26T04:34:00,0.3,北北西,1,北西,16.9,96.1,0,0,0,0,0,0,1003.8,1017.6
276,2022-09-26T04:35:00,0.3,北北西,1,北西,16.8,95.9,0,0,0,0,0,0,1003.8,1017.6
277,2022-09-26T04:36:00,0.3,北北西,1,北西,16.9,96,0,0,0,0,0,0,1003.9,1017.7
278,2022-09-26T04:37:00,0.2,静穏,1,北西,17.1,96.3,0,0,0,0,0,0,1003.9,1017.7
279,2022-09-26T04:38:00,0.2,静穏,0.8,北北西,17,96.2,0,0,0,0,0,0,1003.9,1017.7
280,2022-09-26T04:39:00,0.1,静穏,0.7,西北西,17,96.1,0,0,0,0,0,0,1003.9,1017.7
281,2022-09-26T04:40:00,0.1,静穏,0.5,北北西,16.9,96,0,0,0,0,0,0,1003.9,1017.7
282,2022-09-26T04:41:00,0.1,静穏,0.4,西北西,17,96.1,0,0,0,0,0,0,1003.9,1017.7
283,2022-09-26T04:42:00,0,静穏,0.3,北,17,96.1,0,0,0,0,0,0,1003.9,1017.7
284,2022-09-26T04:43:00,0,静穏,0.3,北,16.9,96,0,0,0,0,0,0,1003.9,1017.7
285,2022-09-26T04:44:00,0,静穏,0.2,北東,16.9,95.9,0,0,0,0,0,0,1004,1017.8
286,2022-09-26T04:45:00,0,静穏,0.2,北東,17,96.1,0,0,0,0,0,0,1004,1017.8
287,2022-09-26T04:46:00,0,静穏,0.4,西北西,16.9,96,0,0,0,0,0,0,1004,1017.8
288,2022-09-26T04:47:00,0.1,静穏,0.4,西北西,17,96,0,0,0,0,0,0,1004,1017.8
289,2022-09-26T04:48:00,0.1,静穏,0.4,西北西,16.9,95.9,0,0,0,0,0,0,1004,1017.8
290,2022-09-26T04:49:00,0.1,静穏,0.5,西北西,16.9,95.9,0,0,0,0,0,0,1004,1017.8
291,2022-09-26T04:50:00,0.2,静穏,0.6,西南西,16.9,95.8,0,0,0,0,0,0,1004,1017.8
292,2022-09-26T04:51:00,0.2,静穏,0.9,西,16.9,95.9,0,0,0,0,0,0,1004,1017.8
293,2022-09-26T04:52:00,0.3,北西,0.9,西,16.7,95.8,0,0,0,0,0,0,1004,1017.8
294,2022-09-26T04:53:00,0.4,北西,0.9,西,16.8,95.8,0,0,0,0,0,0,1004,1017.8
295,2022-09-26T04:54:00,0.4,西北西,0.9,西,16.7,95.9,0,0,0,0,0,0,1004,1017.8
296,2022-09-26T04:55:00,0.5,西北西,1.1,西北西,16.8,96.1,0,0,0,0,0,0,1003.9,1017.7
297,2022-09-26T04:56:00,0.6,西北西,1.1,西北西,16.9,96.3,0,0,0,0,0,0,1004,1017.8
298,2022-09-26T04:57:00,0.7,西北西,1.3,西,16.9,96.2,0,0,0,0,0,0,1004,1017.8
299,2022-09-26T04:58:00,0.8,西北西,1.4,西,17,96.3,0,0,0,0,0,0,1004,1017.8
300,2022-09-26T04:59:00,0.9,西,1.4,西,17,96.2,0,0,0,0,0,0,1004,1017.8
301,2022-09-26T05:00:00,1,西,1.4,西,16.9,96,0,0,0,0,0,0,1004,1017.8
302,2022-09-26T05:01:00,1,西,1.4,西,16.8,95.8,0,0,0,0,0,0,1004,1017.8
303,2022-09-26T05:02:00,1,西,1.4,西,16.8,95.8,0,0,0,0,0,0,1004,1017.8
304,2022-09-26T05:03:00,1,西,1.4,西,16.7,95.7,0,0,0,0,0,0,1004,1017.8
305,2022-09-26T05:04:00,1,西,1.4,西,16.6,95.5,0,0,0,0,0,0,1004,1017.8
306,2022-09-26T05:05:00,1,西,1.4,西,16.4,95.3,0,0,0,0,0,0,1003.9,1017.7
307,2022-09-26T05:06:00,0.9,西,1.4,西,16.4,95.5,0,0,0,0,0,0,1003.9,1017.7
308,2022-09-26T05:07:00,0.8,西,1.4,西,16.6,95.8,0,0,0,0,0,0,1004,1017.8
309,2022-09-26T05:08:00,0.7,西,1.4,西,16.7,96.1,0,0,0,0,0,0,1004,1017.8
310,2022-09-26T05:09:00,0.5,西,1.4,西,16.8,96.3,0,0,0,0,0,0,1004,1017.8
311,2022-09-26T05:10:00,0.5,西,1.3,西,16.8,96.4,0,0,0,0,0,0,1004,1017.8
312,2022-09-26T05:11:00,0.4,西,1,西,16.7,96.2,0,0,0,0,0,0,1004,1017.8
313,2022-09-26T05:12:00,0.4,西,0.9,西,16.6,96,0,0,0,0,0,0,1004,1017.8
314,2022-09-26T05:13:00,0.4,西,0.9,西,16.6,96,0,0,0,0,0,0,1004,1017.8
315,2022-09-26T05:14:00,0.4,西,0.9,西,16.6,96.1,0,0,0,0,0,0,1004.1,1017.9
316,2022-09-26T05:15:00,0.4,西北西,0.9,西,16.5,96,0,0,0,0,0,0,1004.1,1017.9
317,2022-09-26T05:16:00,0.5,西北西,0.9,西,16.5,96.1,0,0,0,0,0,0,1004,1017.8
318,2022-09-26T05:17:00,0.5,西北西,1,西北西,16.6,96.1,0,0,0,0,0,0,1004.1,1017.9
319,2022-09-26T05:18:00,0.6,西北西,1,西北西,16.6,96.3,0,0,0,0,0,0,1004.1,1017.9
320,2022-09-26T05:19:00,0.6,西北西,1,西北西,16.7,96.4,0,0,0,0,0,0,1004.1,1017.9
321,2022-09-26T05:20:00,0.6,西北西,1,西北西,16.7,96.4,0,0,0,0,0,0,1004.1,1017.9
322,2022-09-26T05:21:00,0.6,西北西,1,西北西,16.7,96.3,0,0,0,0,0,0,1004.1,1017.9
323,2022-09-26T05:22:00,0.6,西北西,1,西北西,16.7,96.4,0,0,0,0,0,0,1004.1,1017.9
324,2022-09-26T05:23:00,0.6,西北西,1,西北西,16.6,96.3,0,0,0,0,0,0,1004.1,1017.9
325,2022-09-26T05:24:00,0.6,西北西,1,西北西,16.6,96.2,0,0,0,0,0,0,1004.1,1017.9
326,2022-09-26T05:25:00,0.6,北西,1,西北西,16.7,96.4,0,0,0,0,0,0,1004.1,1017.9
327,2022-09-26T05:26:00,0.6,北西,1,西北西,16.7,96.3,0,0,0,0,0,0,1004.1,1017.9
328,2022-09-26T05:27:00,0.6,北西,1,北西,16.7,96.3,0,0,0,0,0,0,1004.1,1017.9
329,2022-09-26T05:28:00,0.6,北西,1,北西,16.7,96.2,0,0,0,0,0,0,1004.1,1017.9
330,2022-09-26T05:29:00,0.5,北西,1,北西,16.5,96,0,0,0,0,0,0,1004.1,1017.9